FW8022 Weather Reports


Display with metric or nautical units.
time (UTC)temp
F
wind
direction
speed
MPH
gust
MPH
rain 1hr
in
rain 24hr
in
rain mn
in
humidity
%
barometer
mb
20260502130538 53 238 3.0 8.0 0.00 0.00 0.00 91 1011.2
20260502130104 53 238 3.0 8.0 0.00 0.00 0.00 91 1011.2
20260502123537 53 238 4.0 8.0 0.00 0.00 0.00 91 1011.1
20260502123110 53 240 3.0 7.0 0.00 0.00 0.00 91 1011.2
20260502122540 53 234 3.0 7.0 0.00 0.00 0.00 90 1011.2
20260502122037 53 235 4.0 8.0 0.00 0.00 0.00 90 1011.2
20260502121551 53 256 3.0 8.0 0.00 0.00 0.00 90 1011.2
20260502121038 53 209 4.0 7.0 0.00 0.00 0.00 90 1011.2
20260502120537 53 237 3.0 7.0 0.00 0.00 0.00 90 1011.2
20260502115536 53 239 2.0 7.0 0.00 0.00 0.00 90 1011.2
20260502115038 53 250 3.0 7.0 0.00 0.00 0.00 90 1011.3
20260502114553 53 221 3.0 5.0 0.00 0.00 0.00 90 1011.2
20260502114037 53 217 3.0 6.0 0.00 0.00 0.00 90 1011.3
20260502113540 53 217 4.0 6.0 0.00 0.00 0.00 90 1011.3
20260502113046 53 239 3.0 7.0 0.00 0.00 0.00 90 1011.3
20260502112538 53 241 3.0 7.0 0.00 0.00 0.00 90 1011.3
20260502112036 53 246 3.0 7.0 0.00 0.00 0.00 90 1011.3
20260502111545 53 244 3.0 7.0 0.00 0.00 0.00 90 1011.3
20260502111039 53 243 3.0 6.0 0.00 0.00 0.00 90 1011.3
20260502110537 53 231 3.0 7.0 0.00 0.00 0.00 90 1011.3
20260502110048 53 250 3.0 7.0 0.00 0.00 0.00 90 1011.3
20260502105537 52 261 3.0 7.0 0.00 0.00 0.00 90 1011.4
20260502105036 53 225 3.0 8.0 0.00 0.00 0.00 91 1011.4
20260502104541 53 211 4.0 8.0 0.00 0.00 0.00 91 1011.3
20260502104037 53 258 3.0 6.0 0.00 0.00 0.00 91 1011.3
20260502103538 52 222 3.0 7.0 0.00 0.00 0.00 91 1011.4
20260502103048 53 261 3.0 7.0 0.00 0.00 0.00 91 1011.5
20260502102540 52 223 3.0 6.0 0.00 0.00 0.00 91 1011.5
20260502102038 52 231 2.0 5.0 0.00 0.00 0.00 91 1011.4
20260502101554 52 232 2.0 5.0 0.00 0.00 0.00 91 1011.5
20260502101038 52 212 3.0 5.0 0.00 0.00 0.00 91 1011.5
20260502100536 52 235 3.0 5.0 0.00 0.00 0.00 91 1011.6
20260502091037 52 253 2.0 5.0 0.00 0.00 0.00 91 1012.2
20260502090537 52 245 1.0 6.0 0.00 0.00 0.00 91 1012.2
20260502071036 52 285 2.0 8.0 0.00 0.00 0.00 91 1012.6
20260502070541 52 253 1.0 5.0 0.00 0.00 0.00 91 1012.6
20260502070044 52 271 2.0 5.0 0.00 0.00 0.00 91 1012.7
20260502065536 52 257 1.0 7.0 0.00 0.00 0.00 91 1012.7
20260502065037 52 271 2.0 7.0 0.00 0.00 0.00 91 1012.8
20260502064547 52 258 2.0 7.0 0.00 0.00 0.00 91 1012.7
20260502064035 53 261 2.0 6.0 0.00 0.00 0.00 91 1012.8
20260502063537 53 277 2.0 7.0 0.00 0.00 0.00 91 1012.8
20260502063058 53 283 2.0 7.0 0.00 0.00 0.00 91 1012.8
20260502062537 53 281 2.0 7.0 0.00 0.00 0.00 91 1012.9
20260502062037 53 279 3.0 6.0 0.00 0.00 0.00 91 1012.9
20260502061548 53 257 2.0 7.0 0.00 0.00 0.00 91 1012.9
20260502061036 53 250 1.0 7.0 0.00 0.00 0.00 90 1012.9
20260502060537 53 277 3.0 9.0 0.00 0.00 0.00 90 1012.9
20260502060047 53 245 3.0 9.0 0.00 0.00 0.00 91 1012.9
20260502055540 53 255 3.0 6.0 0.00 0.00 0.00 91 1012.8
20260502055037 53 259 2.0 9.0 0.00 0.00 0.00 91 1013.0
20260502054545 53 289 3.0 9.0 0.00 0.00 0.00 91 1013.0
20260502054036 53 246 3.0 8.0 0.00 0.00 0.00 90 1012.9
20260502053536 53 261 2.0 8.0 0.00 0.00 0.00 90 1013.0
20260502053044 53 244 3.0 8.0 0.00 0.00 0.00 91 1013.0
20260502052536 53 248 3.0 8.0 0.00 0.00 0.00 91 1013.0
20260502052039 53 292 3.0 8.0 0.00 0.00 0.00 90 1013.0
20260502051544 53 257 2.0 8.0 0.00 0.00 0.00 91 1013.0
20260502051036 53 238 3.0 8.0 0.00 0.00 0.00 91 1013.0
20260502050537 53 261 2.0 5.0 0.00 0.00 0.00 91 1013.0
20260502050043 53 246 2.0 6.0 0.00 0.00 0.00 91 1013.0
20260502045537 53 273 2.0 9.0 0.00 0.00 0.00 91 1012.9
20260502045036 53 272 2.0 9.0 0.00 0.00 0.00 91 1012.9
20260502044549 53 219 3.0 8.0 0.00 0.00 0.00 91 1012.9
20260502044038 53 263 2.0 8.0 0.00 0.00 0.00 91 1012.9
20260502043537 53 236 2.0 7.0 0.00 0.00 0.00 91 1013.0
20260502043054 53 271 2.0 8.0 0.00 0.00 0.00 91 1012.9
20260502042537 53 281 2.0 8.0 0.00 0.00 0.00 91 1012.9
20260502042037 53 272 2.0 7.0 0.00 0.00 0.00 91 1012.8
20260502041549 53 277 2.0 8.0 0.00 0.00 0.00 91 1012.8
20260502041038 53 247 3.0 8.0 0.00 0.00 0.00 90 1012.8
20260502040538 53 268 4.0 8.0 0.00 0.00 0.00 90 1012.8
20260502040045 53 262 2.0 7.0 0.00 0.00 0.00 90 1012.8
20260502035538 53 240 3.0 7.0 0.00 0.00 0.00 90 1012.7
20260502035038 53 246 3.0 7.0 0.00 0.00 0.00 90 1012.6
20260502034544 53 248 2.0 7.0 0.00 0.00 0.00 90 1012.5
20260502034039 53 280 3.0 7.0 0.00 0.00 0.00 90 1012.5
20260502033544 53 267 3.0 7.0 0.00 0.00 0.00 90 1012.4
20260502033050 53 247 3.0 7.0 0.00 0.00 0.00 90 1012.4
20260502032538 53 244 2.0 7.0 0.00 0.00 0.00 90 1012.3
20260502032038 53 290 2.0 6.0 0.00 0.00 0.00 90 1012.3
20260502031550 53 251 3.0 6.0 0.00 0.00 0.00 90 1012.2
20260502031038 53 250 3.0 5.0 0.00 0.00 0.00 90 1012.2
20260502030539 53 240 2.0 6.0 0.00 0.00 0.00 89 1012.2
20260502030050 53 240 2.0 6.0 0.00 0.00 0.00 90 1012.1
20260502025541 53 286 2.0 9.0 0.00 0.00 0.00 89 1012.2
20260502025040 53 239 3.0 9.0 0.00 0.00 0.00 89 1012.2
20260502024607 53 305 2.0 7.0 0.00 0.00 0.00 89 1012.1
20260502024039 53 242 3.0 7.0 0.00 0.00 0.00 89 1012.2
20260502023539 53 262 3.0 6.0 0.00 0.00 0.00 89 1012.1
20260502023050 53 232 3.0 6.0 0.00 0.00 0.00 89 1012.1
20260502022539 53 259 2.0 7.0 0.00 0.00 0.00 89 1012.1
20260502022040 53 247 3.0 7.0 0.00 0.00 0.00 88 1012.1
20260502021553 53 267 3.0 8.0 0.00 0.00 0.00 89 1012.2
20260502021042 54 252 3.0 9.0 0.00 0.00 0.00 89 1012.2
20260502020538 54 250 3.0 9.0 0.00 0.00 0.00 88 1012.2
20260502020045 54 281 2.0 8.0 0.00 0.00 0.00 88 1012.3
20260502015538 54 272 3.0 8.0 0.00 0.00 0.00 88 1012.3
20260502015039 54 239 3.0 9.0 0.00 0.00 0.00 88 1012.2
20260502014544 54 232 3.0 9.0 0.00 0.00 0.00 88 1012.2
20260502014038 54 252 3.0 8.0 0.00 0.00 0.00 88 1012.3
20260502013538 54 259 3.0 8.0 0.00 0.00 0.00 88 1012.3
20260502013043 54 294 2.0 8.0 0.00 0.00 0.00 88 1012.3
20260502012538 54 259 4.0 8.0 0.00 0.00 0.00 88 1012.3
20260502012038 54 270 3.0 8.0 0.00 0.00 0.00 87 1012.3
20260502011543 54 294 3.0 8.0 0.00 0.00 0.00 87 1012.2
20260502011039 54 248 2.0 6.0 0.00 0.00 0.00 87 1012.2
20260502010542 55 263 3.0 7.0 0.00 0.00 0.00 87 1012.2
20260502010050 55 252 3.0 7.0 0.00 0.00 0.00 87 1012.4
20260502005539 54 288 2.0 7.0 0.00 0.00 0.00 87 1012.4
20260502005039 54 248 3.0 7.0 0.00 0.00 0.00 87 1012.4
20260502004559 54 275 3.0 7.0 0.00 0.00 0.00 87 1012.5
20260502004038 54 255 2.0 7.0 0.00 0.00 0.00 87 1012.5
20260502003537 54 263 2.0 6.0 0.00 0.00 0.00 87 1012.5
20260502003045 54 229 2.0 7.0 0.00 0.00 0.00 87 1012.5
20260502002537 55 245 3.0 8.0 0.00 0.00 0.00 87 1012.6
20260502002040 54 285 4.0 8.0 0.00 0.00 0.00 87 1012.7
20260502001544 55 282 3.0 8.0 0.00 0.00 0.00 87 1012.7
20260502001040 55 257 4.0 8.0 0.00 0.00 0.00 87 1012.6
20260502000539 55 242 4.0 7.0 0.00 0.00 0.00 86 1012.7
20260502000053 55 244 3.0 7.0 0.00 0.00 0.00 86 1012.6
20260501235541 55 234 3.0 7.0 0.00 0.00 0.00 87 1012.7
20260501235038 55 238 2.0 7.0 0.00 0.00 0.00 87 1012.7
20260501234552 55 238 3.0 7.0 0.00 0.00 0.00 86 1012.9
20260501234038 55 251 2.0 5.0 0.00 0.00 0.00 87 1012.8
20260501233538 55 236 2.0 6.0 0.00 0.00 0.00 87 1012.8
20260501233051 55 252 3.0 7.0 0.00 0.00 0.00 86 1012.9
20260501232538 55 221 3.0 7.0 0.00 0.00 0.00 86 1012.9
20260501232040 55 244 3.0 7.0 0.00 0.00 0.00 85 1013.0
20260501231547 56 233 3.0 7.0 0.00 0.00 0.00 86 1013.0
20260501231038 56 281 3.0 7.0 0.00 0.00 0.00 85 1013.1
20260501230538 56 234 3.0 7.0 0.00 0.00 0.00 85 1013.1
20260501230052 56 240 3.0 7.0 0.00 0.00 0.00 85 1013.1
20260501225539 56 233 3.0 7.0 0.00 0.00 0.00 85 1013.2
20260501225039 56 232 3.0 7.0 0.00 0.00 0.00 85 1013.2
20260501224553 56 226 3.0 6.0 0.00 0.00 0.00 85 1013.3
20260501224038 56 255 3.0 7.0 0.00 0.00 0.00 85 1013.4
20260501223538 56 261 2.0 7.0 0.00 0.00 0.00 85 1013.4
20260501223104 56 261 4.0 7.0 0.00 0.00 0.00 84 1013.5
20260501222538 56 250 4.0 7.0 0.00 0.00 0.00 85 1013.5
20260501222038 56 245 3.0 7.0 0.00 0.00 0.00 85 1013.6
20260501221555 56 249 3.0 7.0 0.00 0.00 0.00 85 1013.7
20260501221040 55 244 3.0 7.0 0.00 0.00 0.00 85 1013.8
20260501220538 55 248 4.0 7.0 0.00 0.00 0.00 85 1013.9
20260501220056 55 252 3.0 7.0 0.00 0.00 0.00 86 1013.9
20260501215537 55 235 3.0 7.0 0.00 0.00 0.00 85 1014.0
20260501215038 55 252 3.0 8.0 0.00 0.00 0.00 85 1013.9
20260501214546 55 240 3.0 8.0 0.00 0.00 0.00 86 1014.0
20260501214037 55 249 3.0 8.0 0.00 0.00 0.00 85 1013.9
20260501213537 55 240 4.0 8.0 0.00 0.00 0.00 85 1014.0
20260501213050 55 255 3.0 7.0 0.00 0.00 0.00 84 1014.0
20260501212538 56 239 3.0 6.0 0.00 0.00 0.00 85 1014.0
20260501212042 56 232 3.0 6.0 0.00 0.00 0.00 86 1014.0
20260501211545 55 256 3.0 6.0 0.00 0.00 0.00 86 1014.0
20260501211038 55 219 3.0 6.0 0.00 0.00 0.00 86 1014.0
20260501210537 55 246 3.0 6.0 0.00 0.00 0.00 87 1014.0
20260501210046 55 244 2.0 6.0 0.00 0.00 0.00 86 1014.0
20260501205540 56 213 2.0 5.0 0.00 0.00 0.00 87 1014.1
20260501205038 55 229 2.0 5.0 0.00 0.00 0.00 86 1014.2
20260501204542 55 236 2.0 6.0 0.00 0.00 0.00 87 1014.1
20260501204039 55 273 3.0 6.0 0.00 0.00 0.00 87 1014.1
20260501203538 55 250 3.0 5.0 0.00 0.00 0.00 87 1014.1
20260501203048 55 254 3.0 6.0 0.00 0.00 0.00 87 1014.2
20260501202538 55 243 3.0 8.0 0.00 0.00 0.00 87 1014.2
20260501202038 55 254 3.0 8.0 0.00 0.00 0.00 87 1014.3
20260501201546 55 234 3.0 7.0 0.00 0.00 0.00 87 1014.3
20260501201037 55 237 3.0 7.0 0.00 0.00 0.00 86 1014.2
20260501200542 55 234 3.0 7.0 0.00 0.00 0.00 87 1014.2
20260501200045 55 250 3.0 7.0 0.00 0.00 0.00 86 1014.2
20260501195537 55 229 3.0 7.0 0.00 0.00 0.00 87 1014.2
20260501195037 55 234 4.0 8.0 0.00 0.00 0.00 86 1014.2
20260501194545 55 241 3.0 8.0 0.00 0.00 0.00 86 1014.3
20260501194038 55 250 3.0 6.0 0.00 0.00 0.00 87 1014.4
20260501193539 55 227 3.0 7.0 0.00 0.00 0.00 87 1014.4
20260501193047 55 265 4.0 7.0 0.00 0.00 0.00 87 1014.5
20260501192538 55 245 4.0 7.0 0.00 0.00 0.00 87 1014.6
20260501192036 55 238 4.0 7.0 0.00 0.00 0.00 87 1014.6
20260501191541 55 227 3.0 7.0 0.00 0.00 0.00 88 1014.7
20260501191038 55 242 4.0 7.0 0.00 0.00 0.00 87 1014.6
20260501190538 55 250 3.0 6.0 0.00 0.00 0.00 87 1014.7
20260501190113 55 231 3.0 7.0 0.00 0.00 0.00 87 1014.8
20260501185537 55 240 3.0 7.0 0.00 0.00 0.00 88 1014.7
20260501185039 54 250 3.0 7.0 0.00 0.00 0.00 88 1014.7
20260501184601 54 242 3.0 7.0 0.00 0.00 0.00 89 1014.7
20260501184039 54 227 3.0 6.0 0.00 0.00 0.00 89 1014.7
20260501183538 54 240 3.0 5.0 0.00 0.00 0.00 89 1014.8
20260501183048 54 238 2.0 6.0 0.00 0.00 0.00 90 1014.8
20260501182539 54 221 2.0 6.0 0.00 0.00 0.00 90 1014.9
20260501182038 54 251 3.0 5.0 0.00 0.00 0.00 90 1014.9
20260501181545 54 244 3.0 7.0 0.00 0.00 0.00 90 1014.8
20260501181037 54 248 3.0 7.0 0.00 0.00 0.00 90 1014.8
20260501180539 54 234 3.0 7.0 0.00 0.00 0.00 91 1014.9
20260501180059 53 251 3.0 7.0 0.00 0.00 0.00 91 1014.9
20260501175539 54 244 3.0 7.0 0.00 0.00 0.00 91 1014.8
20260501175040 53 253 4.0 7.0 0.00 0.00 0.00 91 1014.9
20260501174547 53 234 3.0 8.0 0.00 0.00 0.00 91 1014.9
20260501174038 53 207 4.0 8.0 0.00 0.00 0.00 92 1014.8
20260501173538 53 243 2.0 7.0 0.00 0.00 0.00 92 1014.9
20260501173043 53 234 3.0 6.0 0.00 0.00 0.00 92 1014.9
20260501172538 53 235 3.0 7.0 0.00 0.00 0.00 92 1014.9
20260501172039 53 264 3.0 7.0 0.00 0.00 0.00 92 1015.0
20260501171539 53 244 3.0 6.0 0.00 0.00 0.00 92 1014.9
20260501171037 53 252 3.0 7.0 0.00 0.00 0.00 92 1014.8
20260501170538 53 252 4.0 7.0 0.00 0.00 0.00 92 1014.9
20260501170052 53 243 3.0 6.0 0.00 0.00 0.00 92 1014.9
20260501165538 53 259 3.0 8.0 0.00 0.00 0.00 93 1014.9
20260501165040 53 247 3.0 8.0 0.00 0.00 0.00 93 1014.8
20260501164544 53 250 3.0 7.0 0.00 0.00 0.00 93 1014.8
20260501164037 52 246 3.0 7.0 0.00 0.00 0.00 92 1014.7
20260501163537 53 247 3.0 6.0 0.00 0.00 0.00 93 1014.7
20260501163056 53 241 3.0 6.0 0.00 0.00 0.00 93 1014.6
20260501162537 53 253 3.0 6.0 0.00 0.00 0.00 93 1014.6
20260501162038 53 242 3.0 7.0 0.00 0.00 0.00 93 1014.6
20260501161544 53 234 3.0 7.0 0.00 0.00 0.00 93 1014.6
20260501161037 53 236 3.0 7.0 0.00 0.00 0.00 93 1014.5
20260501160537 53 244 3.0 5.0 0.00 0.00 0.00 93 1014.4
20260501160040 52 244 2.0 5.0 0.00 0.00 0.00 93 1014.4
20260501155538 52 243 3.0 5.0 0.00 0.00 0.00 93 1014.4
20260501155037 52 228 2.0 5.0 0.00 0.00 0.00 93 1014.4
20260501154555 52 259 3.0 5.0 0.00 0.00 0.00 93 1014.3
20260501154037 52 246 3.0 5.0 0.00 0.00 0.00 93 1014.3
20260501153538 52 247 2.0 6.0 0.00 0.00 0.00 93 1014.2
20260501153044 52 234 2.0 6.0 0.00 0.00 0.00 93 1014.2
20260501152538 52 261 2.0 8.0 0.00 0.00 0.00 93 1014.2
20260501152037 52 250 3.0 8.0 0.00 0.00 0.00 93 1014.1
20260501151554 52 261 3.0 5.0 0.00 0.00 0.00 93 1014.1
20260501151037 52 234 2.0 5.0 0.00 0.00 0.00 93 1014.0
20260501150538 52 245 2.0 5.0 0.00 0.00 0.00 93 1013.9
20260501150051 52 231 2.0 4.0 0.00 0.00 0.00 93 1013.7
20260501145537 52 277 2.0 4.0 0.00 0.00 0.00 93 1013.8
20260501145037 52 294 2.0 5.0 0.00 0.00 0.00 93 1013.8